Location: Columbia, SC
(34.0000°N, 81.0300°W)
Time: 21:13:01
(UTC-05:00)

Tiangong 1 - Visible Passes

Search period start: 22 December 2014 00:00
Search period end: 01 January 2015 00:00
Orbit: 363 x 383 km, 42.8° (Epoch: 22 December)

Date Brightness Start Highest point End Pass type
(mag) Time Alt. Az. Time Alt. Az. Time Alt. Az.
22 Dec 2.5 18:36:44 10° NW 18:39:09 23° N 18:39:09 23° N visible
23 Dec 3.0 19:09:38 10° NW 19:11:06 24° NW 19:11:06 24° NW visible
24 Dec 2.0 18:06:24 10° NW 18:09:11 30° NNE 18:11:07 16° ENE visible
24 Dec 4.4 19:42:46 10° WNW 19:43:07 12° WNW 19:43:07 12° WNW visible
25 Dec 0.9 18:39:10 10° WNW 18:42:15 88° NNE 18:43:15 40° ESE visible
26 Dec 3.2 19:12:26 10° W 19:14:57 23° SW 19:15:36 21° SSW visible
27 Dec 1.8 18:08:22 10° WNW 18:11:22 53° SSW 18:14:23 10° SE visible
28 Dec 4.1 18:42:05 10° WSW 18:43:45 14° SW 18:45:25 10° S visible
